Home > Weather > Palestine > Past weeks

Flag for U.S.A. Weather for the Past 2 Weeks in Palestine, Texas, U.S.A.

Now
32 °F

Ice fog.


Feels Like: 32 °F
Forecast: 35 / 62 °F
Wind: No wind

Location: Palestine Municipal Airport

Current Time: Feb 7, 2016 at 5:18:51 AM

Latest Report: Feb 7, 2016 at 4:55 AM


Visibility: 4 mi

Pressure: 30.28 "Hg

Humidity: 100%

Dew point: 32 °F

Location of PalestineLocation

Historic Weather in Palestine — Graph

°F

Palestine Temperature Yesterday

Maximum temperature yesterday: 54 °F (at 3:55 PM)
Minimum temperature yesterday: 32 °F (at 11:15 PM)
Average temperature yesterday: 43 °F

High & Low Weather Summary for the Past Weeks

 TemperatureHumidityPressure
High78 °F (Jan 31, 2:55 PM)100% (Feb 7, 12:15 AM)30.52 "Hg (Feb 7, 12:15 AM)
Low26 °F (Jan 23, 6:15 AM)19% (Feb 2, 12:15 PM)29.59 "Hg (Feb 1, 9:55 PM)
Average50 °F64%30.11 "Hg
* Reported Jan 23 4:15 AM — Feb 7 4:15 AM, Palestine, Weather by CustomWeather, © 2016

Note: Actual official high and low records may vary slightly from our data, if they occured in-between our weather recording intervals... More about our weather records

Advertising

Palestine Weather History for the Previous 24 Hours

 ConditionsComfort  
Time TempWeatherWind HumidityBarometerVisibility
4:15 AM
Sun, Feb 7
32 °FIce fog.No wind100%30.29 "Hg4 mi
3:55 AM30 °FIce fog.No wind100%30.30 "Hg4 mi
3:35 AM29 °FIce fog.No wind100%30.31 "Hg4 mi
3:15 AM30 °FClear.No wind99%30.33 "Hg7 mi
2:55 AM32 °FClear.No wind100%30.34 "Hg7 mi
2:35 AM31 °FClear.No wind99%30.34 "Hg7 mi
2:15 AM33 °FClear.No wind97%30.34 "Hg10 mi
1:55 AM32 °FClear.No wind96%30.35 "Hg10 mi
1:35 AM32 °FClear.No wind100%30.35 "Hg10 mi
1:15 AM31 °FClear.No wind99%30.35 "Hg7 mi
12:55 AM32 °FClear.No wind99%30.36 "Hg10 mi
12:35 AM31 °FClear.No wind98%30.37 "Hg10 mi
12:15 AM32 °FClear.No wind100%30.38 "Hg10 mi
11:55 PM
Sat, Feb 6
33 °FClear.No wind97%30.38 "Hg10 mi
11:35 PM34 °FClear.No wind98%30.38 "Hg10 mi
11:15 PM32 °FClear.3 mph99%30.38 "Hg10 mi
10:55 PM35 °FClear.No wind92%30.39 "Hg10 mi
10:35 PM35 °FClear.No wind94%30.38 "Hg10 mi
10:15 PM34 °FClear.No wind97%30.38 "Hg10 mi
9:35 PM36 °FClear.No wind96%30.38 "Hg10 mi
9:15 PM36 °FClear.No wind94%30.38 "Hg10 mi
8:55 PM37 °FClear.No wind88%30.38 "Hg10 mi
8:15 PM37 °FClear.No wind92%30.38 "Hg10 mi
7:35 PM41 °FClear.3 mph83%30.38 "Hg10 mi
7:15 PM44 °FClear.No wind76%30.37 "Hg10 mi
6:55 PM46 °FClear.No wind73%30.36 "Hg10 mi
6:15 PM47 °FClear.3 mph68%30.34 "Hg10 mi
5:55 PM47 °FSunny.No wind69%30.35 "Hg10 mi
5:15 PM51 °FBroken clouds.5 mph60%30.34 "Hg10 mi
4:55 PM52 °FScattered clouds.3 mph57%30.33 "Hg10 mi
4:35 PM53 °FPartly sunny.8 mph57%30.33 "Hg10 mi
4:15 PM53 °FMore clouds than sun.7 mph55%30.34 "Hg10 mi
3:55 PM54 °FBroken clouds.6 mph53%30.34 "Hg10 mi
2:55 PM52 °FPartly sunny.7 mph55%30.34 "Hg10 mi
2:35 PM53 °FMore clouds than sun.8 mph55%30.33 "Hg10 mi
2:15 PM53 °FMore clouds than sun.10 mph55%30.32 "Hg10 mi
1:55 PM52 °FOvercast.6 mph54%30.33 "Hg10 mi
1:35 PM52 °FMostly cloudy.5 mph54%30.32 "Hg10 mi
1:15 PM53 °FPartly sunny.3 mph53%30.32 "Hg10 mi
12:55 PM52 °FScattered clouds.7 mph56%30.33 "Hg10 mi
12:35 PM51 °FScattered clouds.5 mph58%30.34 "Hg10 mi
12:15 PM52 °FScattered clouds.3 mph57%30.34 "Hg10 mi
11:55 AM48 °FScattered clouds.No wind62%30.35 "Hg10 mi
11:35 AM50 °FScattered clouds.No wind63%30.34 "Hg10 mi
11:15 AM49 °FScattered clouds.5 mph66%30.34 "Hg10 mi
10:55 AM47 °FScattered clouds.No wind68%30.34 "Hg10 mi
10:35 AM47 °FScattered clouds.No wind69%30.33 "Hg10 mi
10:15 AM46 °FSunny.No wind72%30.32 "Hg10 mi
9:55 AM45 °FSunny.No wind74%30.31 "Hg10 mi
9:35 AM45 °FSunny.No wind82%30.30 "Hg10 mi
9:15 AM43 °FSunny.No wind88%30.30 "Hg10 mi
8:55 AM42 °FSunny.No wind95%30.29 "Hg10 mi
8:35 AM40 °FPartly sunny.3 mph95%30.29 "Hg10 mi
8:15 AM40 °FOvercast.3 mph97%30.29 "Hg10 mi
7:55 AM39 °FPartly sunny.3 mph98%30.28 "Hg10 mi
7:35 AM38 °FScattered clouds.3 mph98%30.28 "Hg10 mi
7:15 AM38 °FSunny.3 mph98%30.28 "Hg10 mi
6:55 AM38 °FClear.No wind98%30.27 "Hg10 mi
6:35 AM38 °FClear.5 mph97%30.27 "Hg10 mi
6:15 AM38 °FClear.5 mph97%30.27 "Hg10 mi
5:55 AM39 °FClear.3 mph95%30.27 "Hg10 mi
5:35 AM39 °FClear.5 mph95%30.27 "Hg10 mi
5:15 AM39 °FPassing clouds.5 mph94%30.27 "Hg10 mi
Weather by CustomWeather, © 2016

See weather overviewHow to use our weather pages